Miscellaneous Local Product
Issued by NWS Hastings, NE

Home | Current Version | Previous Version | Graphics & Text | Print | Product List | Glossary On
Versions: 1 2 3 4 5 6 7 8 9 10 11 12 13 14 15 16 17 18 19 20 21 22 23 24 25 26 27 28 29 30 31 32 33 34 35 36 37 38 39 40 41 42 43 44 45 46 47 48 49 50
487
AXUS43 KGID 170302
MISGRI

GID CWA HOURLY WEATHER ROUNDUP
NATIONAL WEATHER SERVICE HASTINGS NE
900 PM CST SAT DEC 16 2017

NOTE: "FAIR" INDICATES FEW OR NO CLOUDS BELOW 12,000 FEET WITH NO
SIGNIFICANT WEATHER AND/OR OBSTRUCTIONS TO VISIBILITY.

...SOUTH CENTRAL NEBRASKA...

CITY           SKY/WX    TMP DP  RH WIND       PRES   REMARKS
GRAND ISLAND   CLOUDY    31  30  96 N10       29.96R WCI  22
KEARNEY        CLOUDY    32  28  85 N13       29.95R WCI  22
HASTINGS       CLOUDY    34  28  79 NE13      29.93R WCI  25
ORD            CLOUDY    34  32  92 N8        29.98R WCI  27
YORK           CLOUDY    32  28  86 N10       29.94R WCI  24
AURORA         CLOUDY    32  29  89 N9        29.95R WCI  24
LEXINGTON      CLEAR     35  30  82 NE13      29.95R WCI  26
HOLDREGE       CLOUDY    34  29  82 N13       29.91F WCI  25
HEBRON         CLOUDY    37  23  56 CALM      29.90F

...NEBRASKA PANHANDLE...

CITY           SKY/WX    TMP DP  RH WIND       PRES   REMARKS
CHADRON        CLOUDY    31  26  82 N6        30.04R WCI  25
ALLIANCE       CLOUDY    32  28  85 NE12      29.98R WCI  23
SCOTTSBLUFF    CLOUDY    34  28  79 E13       29.98S WCI  25
SIDNEY         CLOUDY    33  28  81 NE14      29.95S WCI  23

...WESTERN AND NORTH CENTRAL NEBRASKA...

CITY           SKY/WX    TMP DP  RH WIND       PRES   REMARKS
VALENTINE      CLOUDY    37  32  82 N8        30.03R WCI  31
AINSWORTH      CLOUDY    37  34  90 N8        30.02R WCI  30
ONEILL         PTCLDY    35  33  94 N8        30.01S WCI  28
BROKEN BOW     CLOUDY    39  33  79 NE15G21   29.97R WCI  31
IMPERIAL       CLOUDY    36  32  85 NE14      29.95R WCI  27
NORTH PLATTE   CLOUDY    38  33  82 NE16      29.96R WCI  29
MCCOOK         CLEAR     33  28  81 N16       29.91R WCI  23

...EASTERN NEBRASKA...

CITY           SKY/WX    TMP DP  RH WIND       PRES   REMARKS
NORFOLK        CLEAR     32  30  92 NE6       29.97S WCI  26
SO SIOUX CITY  CLOUDY    37  30  75 NE10      30.01S WCI  30
TEKAMAH        CLEAR     31  23  72 N6        29.99R WCI  25
COLUMBUS       CLOUDY    35  29  78 N13       29.97R WCI  26
ALBION         CLEAR     36  32  87 N8        29.98R WCI  30
OMAHA EPPLEY   CLOUDY    34  24  67 N9        29.95S WCI  27
OFFUTT AFB     CLOUDY    40  26  57 N8        29.92F WCI  34
MILLARD        CLOUDY    40  29  64 N5        29.94F
LINCOLN        CLOUDY    36  26  67 N9        29.95S WCI  29
NEBRASKA CITY  CLOUDY    38  25  59 N7        29.92S WCI  33
BEATRICE       CLOUDY    39  24  54 NE6       29.91R WCI  35
FALLS CITY     CLOUDY    42  25  50 S5        29.92R

...NORTHERN KANSAS...

CITY           SKY/WX    TMP DP  RH WIND       PRES   REMARKS
GOODLAND       CLOUDY    31  25  78 N15       29.86R WCI  20
HILL CITY      CLOUDY    38  21  50 NE8       29.86R WCI  32
NORTON         CLEAR     36  25  64 N16       29.86S WCI  26
PHILLIPSBURG   CLEAR     39  25  56 N10       29.87R WCI  32
SMITH CENTER   CLEAR     39  21  48 NE13      29.87F WCI  32
HAYS           CLOUDY    37  20  50 CALM      29.82R
RUSSELL        CLOUDY    46  25  43 S12       29.81S
CONCORDIA      PTCLDY    35  24  64 SE3       29.87S
SALINA         CLOUDY    49  28  44 S8        29.88S
TOPEKA         PTCLDY    39  29  67 E5        29.94R



USA.gov is the U.S. government's official web portal to all federal, state and local government web resources and services.